YAOGAN-31 J (47695 NORAD) Tracking and Keplerian Element Data

This shows tracking and keplerian element data for the satellite.

Feedback or suggestion? Click here.




ElementValue
Catalog47695
NameYAOGAN-31 J
Epoch Orbit686
Epoch Day106.12263066
Epoch Year2021
RAAN6.4351
Inclination63.4105
Eccentricity0.0011144
Argument of Perigee311.3272
Mean Anonmoly48.6774
Mean Motion13.45207569
Decay Rate-9E-07
L11 47695U 21014E 21106.12263066 -.00000090 00000-0 00000+0 0 9994
L22 47695 63.4105 6.4351 0011144 311.3272 48.6774 13.45207569 6869

Live tracking and technical data element details for YAOGAN-31 J (NORAD 47695). YAOGAN-31 J can be tracked NOW for your location showing map with azimuth and elevation plus other details from your city location.

Track the satellite on the map from your city or location and see movement details for azimuth, elevation, latitude, longitude, range, height, and movement on the map or in text.







IsCatalogInMostPopularTable: catalog: 47695, numindb: 11
Update: records affected: 1



GetName: 47695 YAOGAN-31 J

Hit Count: updated at: Fri, 16 Apr 2021 11:33:19 GMT